Change the Weather History Date:

Friday, November 22, 2013

  Actual Average (KMSP) Record (KMSP)
Temperature  
Mean Temperature 22 °F 30 °F  
Max Temperature 32 °F 37 °F 60 °F (2012)
Min Temperature 12 °F 23 °F -6 °F (1880)
Degree Days  
Heating Degree Days 42 35  
Month to date heating degree days 639  
Since 1 July heating degree days 1319  
Cooling Degree Days 0 0  
Month to date cooling degree days 0  
Year to date cooling degree days 753  
Moisture  
Dew Point 11 °F    
Average Humidity 63    
Maximum Humidity 93    
Minimum Humidity 29    
Precipitation  
Precipitation 0.00 in 0.05 in 0.58 in (1898)
Month to date precipitation 1.33  
Year to date precipitation 29.01  
Snow  
Snow 0.00 in 0.40 in 5.50 in (1898)
Month to date snowfall 6.0  
Since 1 July snowfall 6.6  
Since 1 September snowfall 6.6  
Snow Depth -    
Sea Level Pressure  
Sea Level Pressure 30.53 in    
Wind  
Wind Speed 9 mph (WNW)    
Max Wind Speed 20 mph    
Max Gust Speed 29 mph    
Visibility 10 miles    
Events Snow    
T = Trace of Precipitation, MM = Missing Value Source: NWS Daily Summary

Daily Weather History Graph

Daily Weather History Graph

Search for Another Location

Airport or City:

Trip Planner

Search our weather history database for the weather conditions in past years. The results will help you decide how hot, cold, wet, or windy it might be!

Date:

Astronomy

Nov. 22, 2013 Rise Set
Actual Time 7:19 AM CST 4:34 PM CST
Civil Twilight 6:46 AM CST 5:07 PM CST
Nautical Twilight 6:10 AM CST 5:43 PM CST
Astronomical Twilight 5:34 AM CST 6:18 PM CST
Moon 9:11 PM CST (11/22) 10:59 AM CST (11/22)
Length of Visible Light 10h 20m
Length of Day
9h 15m
Waning Gibbous, 78% of the Moon is Illuminated
Nov 22
Waning Gibbous
Nov 25
Last Quarter
Dec 2
New
Dec 9
First Quarter
Dec 17
Full

Hourly Weather History & Observations

Time (CST) Temp. Windchill Dew Point Humidity Pressure Visibility Wind Dir Wind Speed Gust Speed Precip Events Conditions
12:15 AM 23.9 °F 12.9 °F 14.0 °F 66% 30.52 in 10.0 mi North 11.5 mph 18.4 mph N/A   Overcast
12:35 AM 23.9 °F 15.0 °F 15.3 °F 70% 30.52 in 10.0 mi NNW 8.1 mph - N/A   Overcast
12:55 AM 23.7 °F 14.7 °F 15.8 °F 72% 30.53 in 10.0 mi NNW 8.1 mph - N/A   Overcast
1:15 AM 23.2 °F 13.3 °F 15.8 °F 73% 30.52 in 10.0 mi NW 9.2 mph - N/A   Mostly Cloudy
1:35 AM 23.0 °F 13.1 °F 15.8 °F 74% 30.53 in 10.0 mi NW 9.2 mph - N/A   Mostly Cloudy
1:55 AM 22.8 °F 12.2 °F 15.4 °F 73% 30.53 in 10.0 mi NNW 10.4 mph - N/A   Mostly Cloudy
2:15 AM 22.8 °F 12.9 °F 15.6 °F 74% 30.55 in 10.0 mi NW 9.2 mph - N/A   Scattered Clouds
2:35 AM 22.5 °F 12.4 °F 15.1 °F 73% 30.55 in 10.0 mi NNW 9.2 mph - N/A   Scattered Clouds
2:55 AM 22.1 °F 12.0 °F 14.9 °F 74% 30.55 in 10.0 mi NW 9.2 mph - N/A   Scattered Clouds
3:15 AM 21.9 °F 13.4 °F 15.1 °F 75% 30.55 in 10.0 mi NW 6.9 mph - N/A   Clear
3:35 AM 21.6 °F 15.3 °F 14.9 °F 76% 30.53 in 10.0 mi NW 4.6 mph - N/A   Clear
3:55 AM 21.2 °F 12.6 °F 14.5 °F 75% 30.54 in 10.0 mi NW 6.9 mph - N/A   Clear
4:15 AM 20.8 °F 10.4 °F 14.5 °F 77% 30.54 in 10.0 mi NW 9.2 mph - N/A   Clear
4:35 AM 20.3 °F 11.5 °F 14.0 °F 77% 30.54 in 10.0 mi NW 6.9 mph - N/A   Clear
4:55 AM 19.8 °F 10.8 °F 14.0 °F 78% 30.55 in 10.0 mi NW 6.9 mph - N/A   Clear
5:15 AM 19.2 °F 11.3 °F 13.5 °F 78% 30.55 in 10.0 mi NW 5.8 mph - N/A   Clear
5:35 AM 18.5 °F 10.4 °F 13.5 °F 81% 30.56 in 10.0 mi NW 5.8 mph - N/A   Clear
5:55 AM 18.3 °F 11.5 °F 13.1 °F 80% 30.56 in 10.0 mi NW 4.6 mph - N/A   Clear
6:15 AM 18.0 °F 11.1 °F 13.1 °F 81% 30.56 in 10.0 mi NW 4.6 mph - N/A   Clear
6:35 AM 17.4 °F - 12.9 °F 83% 30.56 in 10.0 mi Calm Calm - N/A   Clear
6:55 AM 16.9 °F 11.5 °F 12.7 °F 84% 30.56 in 10.0 mi WNW 3.5 mph - N/A   Clear
7:15 AM 16.0 °F - 12.6 °F 86% 30.57 in 10.0 mi Calm Calm - N/A   Clear
7:35 AM 15.4 °F 6.8 °F 13.6 °F 93% 30.57 in 10.0 mi West 5.8 mph - N/A   Clear
7:55 AM 15.8 °F - 14.2 °F 93% 30.56 in 10.0 mi Calm Calm - N/A   Clear
8:15 AM 17.2 °F 8.9 °F 14.7 °F 90% 30.57 in 10.0 mi West 5.8 mph - N/A   Clear
8:35 AM 18.1 °F 10.0 °F 14.9 °F 87% 30.57 in 10.0 mi West 5.8 mph - N/A   Clear
8:55 AM 18.5 °F 10.4 °F 14.7 °F 85% 30.57 in 10.0 mi West 5.8 mph - N/A   Clear
9:15 AM 19.4 °F 11.5 °F 14.9 °F 83% 30.58 in 10.0 mi WSW 5.8 mph - N/A   Clear
9:35 AM 19.9 °F 13.4 °F 14.9 °F 81% 30.57 in 10.0 mi WSW 4.6 mph - N/A   Clear
9:55 AM 21.2 °F 13.6 °F 15.6 °F 79% 30.57 in 10.0 mi WSW 5.8 mph - N/A   Clear
10:15 AM 22.5 °F 17.8 °F 16.0 °F 76% 30.57 in 10.0 mi WSW 3.5 mph - N/A   Clear
10:35 AM 23.9 °F 18.0 °F 14.5 °F 67% 30.56 in 10.0 mi SW 4.6 mph - N/A   Clear
10:55 AM 25.3 °F 16.7 °F 12.7 °F 59% 30.55 in 10.0 mi SW 8.1 mph - N/A   Clear
11:15 AM 27.0 °F 18.0 °F 12.2 °F 54% 30.52 in 10.0 mi South 9.2 mph - N/A   Clear
11:35 AM 28.2 °F 18.9 °F 10.6 °F 48% 30.51 in 10.0 mi SW 10.4 mph - N/A   Clear
12:15 PM 29.7 °F 20.1 °F 9.0 °F 42% 30.51 in 10.0 mi SSW 11.5 mph - N/A   Clear
12:35 PM 30.4 °F 20.0 °F 9.3 °F 41% 30.50 in 10.0 mi SW 13.8 mph 18.4 mph N/A   Clear
12:55 PM 30.9 °F 20.7 °F 7.7 °F 38% 30.49 in 10.0 mi SW 13.8 mph - N/A   Clear
1:15 PM 31.1 °F 21.4 °F 8.2 °F 38% 30.49 in 10.0 mi SW 12.7 mph - N/A   Clear
1:35 PM 32.0 °F 22.1 °F 8.6 °F 38% 30.48 in 10.0 mi SW 13.8 mph 19.6 mph N/A   Clear
1:55 PM 32.0 °F 22.1 °F 7.0 °F 35% 30.47 in 10.0 mi WSW 13.8 mph 19.6 mph N/A   Clear
2:15 PM 32.5 °F 22.3 °F 5.4 °F 32% 30.46 in 10.0 mi WSW 15.0 mph 19.6 mph N/A   Clear
2:35 PM 32.9 °F 22.4 °F 5.4 °F 31% 30.46 in 10.0 mi WSW 16.1 mph - N/A   Clear
2:55 PM 32.4 °F 22.1 °F 4.5 °F 31% 30.45 in 10.0 mi WSW 15.0 mph 19.6 mph N/A   Clear
3:15 PM 32.7 °F 23.4 °F 3.7 °F 29% 30.44 in 10.0 mi West 12.7 mph 21.9 mph N/A   Clear
3:35 PM 32.2 °F 23.2 °F 4.1 °F 31% 30.45 in 10.0 mi West 11.5 mph 18.4 mph N/A   Clear
3:55 PM 31.8 °F 23.9 °F 5.9 °F 34% 30.46 in 10.0 mi West 9.2 mph - N/A   Clear
4:15 PM 31.1 °F 22.4 °F 5.2 °F 33% 30.46 in 10.0 mi West 10.4 mph - N/A   Clear
4:35 PM 31.1 °F 21.9 °F 4.8 °F 33% 30.46 in 10.0 mi WNW 11.5 mph 17.3 mph N/A   Clear
4:55 PM 30.0 °F 20.0 °F 6.1 °F 36% 30.46 in 10.0 mi West 12.7 mph 19.6 mph N/A   Clear
5:15 PM 29.1 °F 20.0 °F 9.5 °F 44% 30.47 in 10.0 mi NW 10.4 mph 18.4 mph N/A   Clear
5:35 PM 27.9 °F 17.3 °F 11.3 °F 50% 30.47 in 10.0 mi WNW 12.7 mph 20.7 mph N/A   Scattered Clouds
5:55 PM 27.9 °F 17.3 °F 12.0 °F 52% 30.48 in 10.0 mi NW 12.7 mph 20.7 mph N/A   Overcast
6:15 PM 27.1 °F 15.9 °F 13.1 °F 56% 30.49 in 10.0 mi WNW 13.8 mph 20.7 mph N/A   Overcast
6:35 PM 26.6 °F 15.7 °F 13.3 °F 57% 30.49 in 10.0 mi NW 12.7 mph 21.9 mph N/A   Overcast
6:55 PM 25.5 °F 14.3 °F 15.6 °F 66% 30.49 in 10.0 mi NW 12.7 mph 20.7 mph N/A   Overcast
7:15 PM 24.8 °F 14.6 °F 15.4 °F 68% 30.50 in 10.0 mi WNW 10.4 mph 19.6 mph N/A   Overcast
7:35 PM 24.6 °F 13.2 °F 15.8 °F 69% 30.51 in 10.0 mi NW 12.7 mph 21.9 mph N/A   Overcast
7:55 PM 23.7 °F 10.5 °F 17.2 °F 76% 30.51 in 10.0 mi WNW 16.1 mph 21.9 mph N/A   Overcast
8:15 PM 23.0 °F 10.6 °F 15.1 °F 72% 30.52 in 10.0 mi WNW 13.8 mph 23.0 mph N/A Snow Light Snow
8:35 PM 21.9 °F 9.2 °F 11.8 °F 65% 30.53 in 10.0 mi WNW 13.8 mph 21.9 mph N/A   Mostly Cloudy
8:55 PM 20.8 °F 8.4 °F 10.0 °F 63% 30.54 in 10.0 mi WNW 12.7 mph 23.0 mph N/A   Mostly Cloudy
9:15 PM 20.1 °F 8.8 °F 9.3 °F 63% 30.54 in 10.0 mi NW 10.4 mph 23.0 mph N/A   Overcast
9:35 PM 19.2 °F 4.3 °F 9.1 °F 65% 30.55 in 10.0 mi WNW 17.3 mph 23.0 mph N/A   Mostly Cloudy
9:55 PM 19.0 °F 3.6 °F 9.3 °F 66% 30.56 in 10.0 mi NW 18.4 mph 24.2 mph N/A   Mostly Cloudy
10:15 PM 18.3 °F 2.2 °F 7.2 °F 62% 30.58 in 10.0 mi NNW 19.6 mph 28.8 mph N/A   Overcast
10:35 PM 16.2 °F 2.5 °F 5.4 °F 62% 30.58 in 10.0 mi NNW 12.7 mph 19.6 mph N/A   Overcast
10:55 PM 15.1 °F -0.1 °F 4.8 °F 64% 30.60 in 10.0 mi NNW 15.0 mph 21.9 mph N/A   Mostly Cloudy
11:15 PM 14.9 °F 1.6 °F 4.3 °F 63% 30.61 in 10.0 mi NNW 11.5 mph 21.9 mph N/A   Overcast
11:35 PM 13.3 °F -1.8 °F 1.8 °F 60% 30.62 in 10.0 mi NNW 13.8 mph 24.2 mph N/A   Mostly Cloudy
11:55 PM 12.2 °F -1.8 °F 1.0 °F 61% 30.63 in 10.0 mi NNW 11.5 mph 21.9 mph N/A   Clear